Terug naar catalogus

HULIANWANG DIGUI-143

ActiefCommunicatieLEO
NORAD 67441·PAYLOAD·🇨🇳 China

Gelanceerd Jan 13, 2026 vanaf Wenchang Space Launch Site

Loading…

Volgende Passages (komende 24 uur)

TLE

VersSource: Space-Track

Epoch: Sep 14, 2026, 14:15 UTC

1 67441U 26007G   26257.59440097 -.00000081  00000-0  92857-4 0  9992
2 67441  50.0093 125.0431 0000436  23.1403 336.9489 13.29328549 32680

Volg HULIANWANG DIGUI-143 in realtime met AllMySat

Download on the App Store